1535824800.29,62806,21.56,74688.5,5.01,-16.37,-16.65,0,*74
1535824801.52,62807,21.56,74688.3,5.03,-16.37,-16.65,0,*77
1535824802.75,62808,21.56,74686.8,5.03,-16.45,-16.69,0,*71
1535824803.95,62809,21.56,74690.5,5.03,-16.45,-16.83,0,*74
1535824805.18,62810,21.56,74684.0,5.01,-16.45,-16.79,0,*7B
1535824806.4,62811,21.56,74688.3,5.03,-16.23,-16.45,0,*77
1535824807.62,62812,21.56,74684.8,5.03,-16.17,-16.37,0,*76
1535824808.87,62813,21.56,74686.5,5.01,-16.31,-16.59,0,*79
1535824810.12,62814,21.56,74684.3,5.01,-16.31,-16.59,0,*7E
1535824811.37,62815,21.56,74684.0,5.01,-16.45,-16.69,0,*7F
1535824812.62,62816,21.56,74686.0,5.01,-16.37,-16.69,0,*79
1535824813.87,62817,21.56,74686.0,5.01,-16.45,-16.69,0,*7D
1535824815.12,62818,21.56,74684.3,5.01,-16.45,-16.65,0,*7E
1535824816.35,62819,21.56,74684.3,5.01,-16.37,-16.59,0,*75
1535824817.62,62820,21.56,74684.5,5.01,-16.31,-16.65,0,*76
1535824818.89,62821,21.56,74686.8,5.01,-16.23,-16.51,0,*73
1535824820.13,62822,21.56,74690.0,5.01,-16.17,-16.45,0,*72
1535824821.38,62823,21.56,74686.5,5.01,-16.23,-16.59,0,*79
1535824822.61,62824,21.56,74684.3,5.01,-16.37,-16.59,0,*7B
1535824823.86,62825,21.56,74688.0,5.01,-16.23,-16.45,0,*72
1535824825.13,62826,21.56,74688.3,5.01,-16.31,-16.65,0,*70
1535824826.4,62827,21.56,74686.0,5.01,-16.17,-16.51,0,*72
1535824827.63,62828,21.56,74686.5,5.01,-16.45,-16.59,0,*72
1535824828.88,62829,21.56,74688.3,5.01,-16.37,-16.69,0,*75
1535824830.1,62830,21.56,74686.5,5.03,-16.37,-16.51,0,*74
1535824831.33,62831,21.56,74684.3,5.01,-16.45,-16.79,0,*78
1535824832.53,62832,21.56,74686.0,4.99,-16.37,-16.55,0,*70
1535824833.78,62833,21.56,74682.5,4.99,-16.23,-16.51,0,*70
1535824835.02,62834,21.56,74688.3,4.99,-16.41,-16.69,0,*78
1535824836.25,62835,21.56,74692.8,4.97,-16.55,-16.79,0,*73
1535824837.48,62836,21.56,74686.5,4.99,-16.27,-16.55,0,*75
1535824838.73,62837,21.56,74688.0,4.97,-16.27,-16.55,0,*7A
1535824839.95,62838,21.56,74688.5,4.99,-16.37,-16.51,0,*7E
1535824841.21,62839,21.56,74686.5,4.99,-16.51,-16.65,0,*78
1535824842.43,62840,21.56,74690.8,4.97,-16.55,-16.79,0,*71
1535824843.66,62841,21.56,74688.5,4.97,-16.59,-16.89,0,*73
1535824844.88,62842,21.56,74684.3,4.97,-16.59,-16.89,0,*70
1535824846.11,62843,21.56,74688.5,4.97,-16.45,-16.75,0,*7F
1535824847.34,62844,21.56,74692.3,4.99,-16.51,-16.83,0,*7A
1535824848.57,62845,21.56,74684.3,4.97,-16.55,-16.93,0,*70
1535824849.81,62846,21.56,74686.5,4.97,-16.31,-16.55,0,*7B
1535824851.06,62847,21.56,74684.0,4.97,-16.31,-16.55,0,*7A
1535824852.29,62848,21.56,74686.8,4.97,-16.45,-16.59,0,*7A
1535824853.54,62849,21.56,74690.0,4.97,-16.27,-16.55,0,*73
1535824854.78,62850,21.56,74690.5,4.97,-16.27,-16.45,0,*7A
1535824856.03,62851,21.56,74688.8,4.97,-16.41,-16.69,0,*75
1535824857.28,62852,21.56,74688.0,4.97,-16.17,-16.45,0,*7B
1535824858.53,62853,21.56,74688.5,4.97,-16.31,-16.59,0,*73
1535824859.78,62854,21.56,74684.5,4.97,-16.31,-16.59,0,*74
1535824861.05,62855,21.56,74682.8,4.97,-16.17,-16.31,0,*7F
1535824862.3,62856,21.56,74686.8,4.97,-16.27,-16.55,0,*7D
1535824863.55,62857,21.56,74690.3,4.97,-16.27,-16.45,0,*7D
1535824864.79,62858,21.56,74686.8,4.97,-16.17,-16.45,0,*71
1535824866.05,62859,21.56,74684.0,4.97,-16.13,-16.41,0,*70
1535824867.29,62860,21.56,74690.0,4.97,-16.17,-16.45,0,*7A
1535824868.54,62861,21.56,74688.5,4.97,-16.27,-16.55,0,*79
1535824869.79,62862,21.56,74690.5,4.97,-16.45,-16.69,0,*71
1535824871.03,62863,21.56,74688.8,4.95,-16.27,-16.59,0,*75
1535824872.3,62864,21.56,74688.3,4.97,-16.17,-16.31,0,*7D
1535824873.53,62865,21.56,74688.8,4.95,-16.13,-16.41,0,*7D
1535824874.76,62866,21.56,74688.0,4.95,-16.31,-16.59,0,*77
1535824876.0,62867,21.56,74686.5,4.95,-16.17,-16.41,0,*7B
1535824877.25,62868,21.56,74686.0,4.95,-16.13,-16.31,0,*77
1535824878.49,62869,21.56,74686.0,4.97,-16.27,-16.45,0,*70
1535824879.72,62870,21.56,74686.0,4.99,-16.27,-16.41,0,*72
1535824881.0,62871,21.56,74688.5,4.97,-16.13,-16.31,0,*7D
1535824882.25,62872,21.56,74686.5,4.97,-16.17,-16.41,0,*7D
1535824883.5,62873,21.56,74686.5,4.97,-15.89,-16.03,0,*7E
1535824884.74,62874,21.56,74684.8,4.97,-15.99,-16.27,0,*7E
1535824885.99,62875,21.56,74684.5,4.97,-16.17,-16.45,0,*7E
1535824887.24,62876,21.56,74690.5,4.97,-16.17,-16.55,0,*7C
1535824888.49,62877,21.56,74688.8,4.97,-16.17,-16.45,0,*7C
1535824889.73,62878,21.56,74690.8,4.97,-16.17,-16.45,0,*73
1535824890.98,62879,21.56,74690.3,4.97,-16.17,-16.41,0,*76
1535824892.21,62880,21.56,74688.0,4.97,-16.03,-16.41,0,*75
1535824893.46,62881,21.56,74688.3,4.97,-16.03,-16.27,0,*74
1535824894.7,62882,21.56,74688.8,4.97,-16.03,-16.31,0,*70
1535824895.98,62883,21.56,74694.0,4.97,-15.85,-16.13,0,*7C
1535824897.22,62884,21.56,74694.5,4.97,-16.27,-16.45,0,*73
1535824898.46,62885,21.56,74686.5,4.97,-16.27,-16.45,0,*72
1535824899.72,62886,21.56,74686.8,4.97,-16.17,-16.41,0,*76
1535824900.97,62887,21.56,74690.8,4.97,-16.31,-16.59,0,*7A
1535824902.22,62888,21.56,74688.0,4.97,-16.31,-16.59,0,*75
1535824903.47,62889,21.56,74690.8,4.97,-16.31,-16.59,0,*74
1535824904.71,62890,21.56,74690.8,4.97,-16.31,-16.55,0,*70
1535824905.99,62891,21.56,74690.8,4.97,-16.13,-16.31,0,*73
1535824907.22,62892,21.56,74688.5,4.95,-16.13,-16.41,0,*75
1535824908.44,62893,21.56,74688.8,4.95,-16.41,-16.59,0,*7A
1535824909.67,62894,21.56,74688.0,4.95,-16.41,-16.69,0,*7E
1535824910.88,62895,21.56,74690.5,4.95,-16.45,-16.79,0,*7A
1535824912.11,62896,21.56,74684.8,4.95,-16.31,-16.59,0,*78
1535824913.36,62897,21.56,74684.8,4.93,-16.09,-16.45,0,*79
1535824914.57,62898,21.56,74688.5,4.95,-16.41,-16.55,0,*7D
1535824915.81,62899,21.56,74688.5,4.93,-16.45,-16.59,0,*72
1535824917.04,62900,21.56,74690.0,4.95,-16.45,-16.69,0,*76
1535824918.26,62901,21.56,74686.0,4.95,-16.27,-16.45,0,*7D
1535824919.49,62902,21.56,74688.5,4.95,-16.17,-16.41,0,*79
1535824920.75,62903,21.56,74688.3,4.95,-15.89,-16.27,0,*7C
1535824922.0,62904,21.56,74690.8,4.95,-16.17,-16.31,0,*78
1535824923.26,62905,21.56,74690.3,4.95,-16.13,-16.31,0,*7D
1535824924.49,62906,21.56,74684.8,4.95,-16.31,-16.55,0,*7C
1535824925.71,62907,21.56,74688.5,4.95,-16.45,-16.69,0,*71
1535824926.97,62908,21.56,74690.3,4.93,-16.45,-16.69,0,*78
1535824928.19,62909,21.56,74692.0,4.95,-16.27,-16.45,0,*75
1535824929.45,62910,21.56,74688.3,4.93,-16.45,-16.65,0,*7D
1535824930.7,62911,21.56,74690.8,4.93,-16.45,-16.65,0,*7C
1535824931.94,62912,21.56,74684.5,4.93,-16.45,-16.75,0,*7E
1535824933.2,62913,21.56,74686.3,4.93,-16.51,-16.83,0,*73
1535824934.43,62914,21.56,74690.8,4.93,-16.37,-16.59,0,*73
1535824935.71,62915,21.56,74686.5,4.93,-16.17,-16.31,0,*7E
1535824936.97,62916,21.56,74690.3,4.93,-16.17,-16.37,0,*7B
1535824938.22,62917,21.56,74684.8,4.93,-16.31,-16.59,0,*76
1535824939.47,62918,21.56,74684.8,4.93,-16.17,-16.45,0,*70
1535824940.75,62919,21.56,74690.0,4.93,-16.31,-16.51,0,*70
1535824941.96,62920,21.56,74692.8,4.95,-16.41,-16.59,0,*73
1535824943.21,62921,21.56,74690.3,4.93,-16.03,-16.23,0,*7F
1535824944.43,62922,21.56,74690.8,4.95,-15.99,-16.31,0,*79
1535824945.71,62923,21.56,74690.5,4.93,-16.31,-16.51,0,*79
1535824946.98,62924,21.56,74688.5,4.93,-16.31,-16.65,0,*79
1535824948.24,62925,21.56,74686.5,4.93,-16.09,-16.37,0,*74
1535824949.49,62926,21.56,74690.8,4.93,-16.17,-16.45,0,*7D
1535824950.75,62927,21.56,74692.3,4.93,-16.23,-16.59,0,*76
1535824952.01,62928,21.56,74688.5,4.93,-16.31,-16.59,0,*7A
1535824953.28,62929,21.56,74690.0,4.93,-16.31,-16.51,0,*73
1535824954.51,62930,21.56,74688.8,4.95,-16.27,-16.55,0,*7E
1535824955.78,62931,21.56,74690.3,4.93,-16.31,-16.51,0,*7A
1535824957.04,62932,21.56,74690.0,4.93,-16.09,-16.37,0,*72
1535824958.26,62933,21.56,74688.0,4.93,-16.03,-16.45,0,*7C
1535824959.52,62934,21.56,74690.3,4.93,-16.09,-16.41,0,*75
1535824960.75,62935,21.56,74688.0,4.91,-16.45,-16.79,0,*75
1535824961.97,62936,21.56,74688.3,4.91,-16.45,-16.79,0,*76
1535824963.2,62937,21.56,74684.8,4.89,-16.41,-16.69,0,*7B
1535824964.47,62938,21.56,74688.0,4.93,-16.23,-16.51,0,*70
1535824965.75,62939,21.56,74686.5,4.93,-16.31,-16.51,0,*72
1535824967.0,62940,21.56,74690.8,4.93,-16.31,-16.59,0,*74
1535824968.28,62941,21.56,74690.0,4.93,-16.23,-16.51,0,*7E
1535824969.53,62942,21.56,74688.8,4.91,-16.17,-16.37,0,*78
1535824970.77,62943,21.56,74688.0,4.91,-16.23,-16.45,0,*7B
1535824972.01,62944,21.56,74692.5,4.89,-16.27,-16.51,0,*74
1535824973.26,62945,21.56,74686.8,4.91,-16.09,-16.37,0,*70
1535824974.53,62946,21.56,74686.8,4.91,-16.23,-16.51,0,*7B
1535824975.77,62947,21.56,74690.5,4.91,-16.23,-16.37,0,*7A
1535824977.02,62948,21.56,74690.8,4.91,-16.37,-16.65,0,*77
1535824978.27,62949,21.56,74690.8,4.93,-16.31,-16.75,0,*73
1535824979.5,62950,21.56,74688.5,4.91,-16.37,-16.75,0,*7F
1535824980.73,62951,21.56,74688.3,4.89,-16.09,-16.41,0,*7D
1535824981.98,62952,21.56,74688.8,4.91,-16.09,-16.37,0,*76
1535824983.22,62953,21.56,74688.3,4.89,-16.31,-16.51,0,*75
1535824984.47,62954,21.56,74690.0,4.93,-16.31,-16.59,0,*71
1535824985.71,62955,21.56,74688.0,4.89,-16.27,-16.51,0,*74
1535824986.96,62956,21.56,74688.3,4.91,-15.95,-16.17,0,*76
1535824988.22,62957,21.56,74684.8,4.91,-16.09,-16.37,0,*73
1535824989.46,62958,21.56,74692.0,4.89,-16.23,-16.51,0,*7D
1535824990.65,62959,21.56,74688.5,4.89,-16.37,-16.55,0,*7D
1535824991.9,62960,21.56,74690.3,4.91,-16.31,-16.59,0,*74
1535824993.17,62961,21.56,74688.5,4.91,-16.23,-16.51,0,*7E
1535824994.41,62962,21.56,74690.5,4.89,-16.27,-16.51,0,*70
1535824995.65,62963,21.56,74690.3,4.91,-16.23,-16.45,0,*79
1535824996.87,62964,21.56,74692.3,4.89,-16.23,-16.41,0,*73
1535824998.14,62965,21.56,74692.0,4.91,-16.31,-16.51,0,*79
1535824999.38,62966,21.56,74692.3,4.91,-16.23,-16.45,0,*7C
1535825000.65,62967,21.56,74690.0,4.91,-16.23,-16.51,0,*78
1535825001.89,62968,21.56,74690.0,4.91,-16.17,-16.37,0,*70
1535825003.11,62969,21.56,74688.0,4.89,-16.27,-16.41,0,*7A
1535825004.39,62970,21.56,74688.3,4.91,-16.17,-16.31,0,*7F
1535825005.66,62971,21.56,74688.5,4.91,-16.17,-16.31,0,*7E
1535825006.92,62972,21.56,74686.0,4.91,-16.31,-16.51,0,*7F
1535825008.14,62973,21.56,74686.8,4.89,-16.37,-16.65,0,*76
1535825009.37,62974,21.56,74686.0,4.89,-16.27,-16.55,0,*73
1535825010.59,62975,21.56,74684.3,4.89,-16.09,-16.37,0,*7A
1535825011.87,62976,21.56,74684.5,4.91,-16.09,-16.31,0,*76
1535825013.11,62977,21.56,74690.0,4.91,-16.31,-16.59,0,*72
1535825014.36,62978,21.56,74688.5,4.91,-16.37,-16.51,0,*73
1535825015.63,62979,21.56,74692.5,4.91,-16.17,-16.31,0,*76
1535825016.87,62980,21.56,74688.0,4.91,-16.17,-16.45,0,*73
1535825018.1,62981,21.56,74688.0,4.89,-16.13,-16.37,0,*7A
1535825019.32,62982,21.56,74688.3,4.89,-16.09,-16.37,0,*72
1535825020.53,62983,21.56,74684.5,4.89,-15.99,-16.27,0,*78
1535825021.75,62984,21.56,74690.0,4.89,-15.99,-16.27,0,*7F
1535825022.96,62985,21.56,74690.0,4.89,-15.99,-16.23,0,*7A
1535825024.2,62986,21.56,74688.3,4.89,-16.23,-16.51,0,*7E
1535825025.44,62987,21.56,74692.5,4.89,-16.23,-16.51,0,*7F
1535825026.68,62988,21.56,74688.0,4.89,-16.23,-16.51,0,*70
1535825027.93,62989,21.56,74690.0,4.91,-15.95,-16.23,0,*73
1535825029.2,62990,21.56,74690.3,4.91,-16.17,-16.51,0,*77
1535825030.45,62991,21.56,74688.8,4.89,-16.09,-16.23,0,*75
1535825031.7,62992,21.56,74688.8,4.91,-16.03,-16.17,0,*72
1535825032.92,62993,21.56,74692.0,4.89,-16.23,-16.41,0,*7B
1535825034.17,62994,21.56,74690.8,4.91,-16.17,-16.59,0,*7B
1535825035.42,62995,21.56,74690.0,4.91,-16.09,-16.45,0,*78
1535825036.69,62996,21.56,74688.5,4.91,-16.23,-16.51,0,*76
1535825037.93,62997,21.56,74690.0,4.91,-16.09,-16.45,0,*7A
1535825039.19,62998,21.56,74688.3,4.91,-15.95,-16.09,0,*7B
1535825040.46,62999,21.56,74694.0,4.91,-15.85,-16.17,0,*74
1535825041.69,63000,21.56,74690.8,4.89,-16.09,-16.37,0,*70
1535825042.94,63001,21.56,74690.8,4.91,-16.23,-16.59,0,*78
1535825044.15,63002,21.56,74692.5,4.89,-15.99,-16.23,0,*7D
1535825045.43,63003,21.56,74692.0,4.91,-16.09,-16.51,0,*7A
1535825046.68,63004,21.56,74690.3,4.93,-16.03,-16.23,0,*70
1535825047.92,63005,21.56,74688.0,4.91,-16.31,-16.45,0,*72
1535825049.18,63006,21.56,74686.3,4.91,-16.23,-16.51,0,*77
1535825050.41,63007,21.56,74690.8,4.89,-16.13,-16.37,0,*7C
1535825051.68,63008,21.56,74688.3,4.91,-16.09,-16.51,0,*71
1535825052.96,63009,21.56,74688.5,4.91,-15.89,-16.17,0,*79
1535825054.18,63010,21.56,74690.8,4.89,-16.23,-16.37,0,*79
1535825055.4,63011,21.56,74690.5,4.89,-16.23,-16.41,0,*79
1535825056.64,63012,21.56,74688.3,4.93,-16.31,-16.37,0,*73
1535825057.89,63013,21.56,74690.3,4.91,-15.95,-16.23,0,*78
1535825059.1,63014,21.56,74692.8,4.89,-15.99,-16.27,0,*7E
1535825060.32,63015,21.56,74694.0,4.89,-15.99,-16.27,0,*7F
1535825061.56,63016,21.56,74690.3,4.91,-16.03,-16.23,0,*71
1535825062.84,63017,21.56,74692.5,4.91,-15.85,-16.09,0,*75
1535825064.12,63018,21.56,74690.8,4.91,-15.85,-16.09,0,*7A
1535825065.36,63019,21.56,74692.8,4.91,-16.03,-16.31,0,*7D
1535825066.61,63020,21.56,74692.8,4.93,-16.23,-16.45,0,*74
1535825067.87,63021,21.56,74688.5,4.93,-16.31,-16.59,0,*7B
1535825069.13,63022,21.56,74688.3,4.91,-16.23,-16.51,0,*71
1535825070.4,63023,21.56,74692.0,4.91,-16.23,-16.51,0,*70
1535825071.62,63024,21.56,74690.3,4.89,-16.23,-16.41,0,*7F
1535825072.87,63025,21.5,74688.3,4.91,-15.95,-16.17,0,*7A
1535825074.12,63026,21.56,74692.3,4.91,-15.71,-15.85,0,*7B
1535825075.4,63027,21.56,74692.0,4.91,-15.85,-16.09,0,*76
1535825076.66,63028,21.56,74690.0,4.91,-15.75,-16.09,0,*76
1535825077.93,63029,21.56,74690.5,4.91,-15.89,-16.17,0,*7B
1535825079.18,63030,21.56,74690.3,4.91,-16.03,-16.31,0,*76
1535825080.43,63031,21.56,74688.0,4.91,-15.95,-16.17,0,*7F
1535825081.69,63032,21.56,74688.0,4.91,-16.31,-16.51,0,*73
1535825082.95,63033,21.56,74688.5,4.93,-16.37,-16.51,0,*76
1535825084.19,63034,21.56,74690.5,4.93,-16.31,-16.45,0,*72
1535825085.4,63035,21.56,74690.0,4.95,-16.03,-16.41,0,*70
1535825086.65,63036,21.56,74690.3,4.93,-16.23,-16.37,0,*76
1535825087.88,63037,21.5,74688.0,4.95,-16.27,-16.55,0,*71
1535825089.13,63038,21.56,74694.3,4.93,-16.17,-16.37,0,*7F
1535825090.38,63039,21.56,74688.5,4.93,-16.17,-16.45,0,*7B
1535825091.66,63040,21.56,74688.3,4.91,-16.09,-16.31,0,*7B
1535825092.91,63041,21.56,74688.0,4.91,-15.95,-16.23,0,*7F
1535825094.16,63042,21.56,74694.0,4.91,-16.09,-16.37,0,*7F
1535825095.41,63043,21.56,74690.8,4.93,-16.23,-16.45,0,*71
1535825096.67,63044,21.56,74690.8,4.91,-16.23,-16.51,0,*71
1535825097.92,63045,21.56,74694.5,4.91,-16.03,-16.23,0,*77
1535825099.17,63046,21.56,74694.0,4.91,-16.09,-16.37,0,*7B
1535825100.44,63047,21.56,74690.3,4.93,-16.23,-16.51,0,*70
1535825101.7,63048,21.56,74688.5,4.93,-15.95,-16.23,0,*74
1535825102.98,63049,21.56,74690.3,4.91,-15.85,-16.17,0,*71
1535825104.26,63050,21.56,74692.5,4.93,-15.85,-16.09,0,*74
1535825105.51,63051,21.56,74690.8,4.91,-16.03,-16.17,0,*75
1535825106.8,63052,21.56,74692.0,4.93,-15.89,-16.17,0,*75
1535825108.05,63053,21.56,74690.8,4.95,-15.85,-16.13,0,*7A
1535825109.31,63054,21.56,74694.0,4.93,-15.85,-16.03,0,*7A
1535825110.54,63055,21.5,74690.3,4.93,-15.71,-15.95,0,*7C
1535825111.78,63056,21.56,74688.8,4.93,-15.75,-16.03,0,*77
1535825113.0,63057,21.56,74694.8,4.93,-16.03,-16.45,0,*76
1535825114.25,63058,21.56,74690.3,4.93,-16.17,-16.37,0,*79
1535825115.54,63059,21.56,74690.8,4.93,-16.09,-16.23,0,*72
1535825116.82,63060,21.56,74690.0,4.93,-15.89,-16.23,0,*73
1535825118.07,63061,21.56,74688.5,4.93,-16.03,-16.31,0,*70
1535825119.29,63062,21.56,74694.0,4.95,-15.99,-16.27,0,*72
1535825120.53,63063,21.56,74694.8,4.95,-16.13,-16.41,0,*72
1535825121.76,63064,21.56,74690.3,4.95,-16.17,-16.55,0,*74
1535825122.96,63065,21.56,74692.3,4.95,-15.67,-15.99,0,*72
1535825124.19,63066,21.56,74688.8,4.95,-15.67,-15.85,0,*7C
1535825125.4,63067,21.56,74690.0,4.95,-15.71,-15.99,0,*77
1535825126.62,63068,21.56,74694.3,4.95,-15.99,-16.27,0,*78
1535825127.84,63069,21.5,74690.3,4.95,-16.03,-16.27,0,*79
1535825129.07,63070,21.56,74692.8,4.95,-16.03,-16.31,0,*76
1535825130.3,63071,21.56,74688.8,4.95,-15.81,-16.03,0,*7F
1535825131.53,63072,21.56,74694.3,4.95,-15.85,-16.03,0,*78
1535825132.75,63073,21.56,74694.3,4.95,-15.99,-16.27,0,*72
1535825133.98,63074,21.56,74692.5,4.95,-16.03,-16.27,0,*75
1535825135.24,63075,21.56,74692.0,4.95,-15.89,-16.13,0,*72
1535825136.49,63076,21.56,74694.5,4.95,-16.13,-16.31,0,*71
1535825137.78,63077,21.5,74690.3,4.93,-16.09,-16.31,0,*7D
1535825138.98,63078,21.5,74692.0,4.95,-15.67,-16.03,0,*7E
1535825140.18,63079,21.56,74690.3,4.95,-15.71,-16.03,0,*78
1535825141.39,63080,21.56,74692.8,4.95,-15.71,-16.03,0,*7E
1535825142.61,63081,21.56,74692.5,4.95,-15.85,-16.03,0,*74
1535825143.87,63082,21.56,74690.5,4.97,-15.89,-16.03,0,*79
1535825145.14,63083,21.56,74692.3,4.97,-15.89,-16.13,0,*79
1535825146.39,63084,21.56,74690.3,4.97,-15.85,-16.03,0,*73
1535825147.67,63085,21.56,74692.0,4.97,-15.85,-16.13,0,*73
1535825148.94,63086,21.56,74692.3,4.97,-15.81,-16.13,0,*74
1535825150.22,63087,21.56,74694.5,4.97,-15.85,-16.17,0,*75
1535825151.5,63088,21.56,74690.8,4.97,-15.85,-16.17,0,*7A
1535825152.75,63089,21.56,74694.8,4.97,-15.85,-16.03,0,*7E
1535825153.97,63090,21.5,74694.0,4.97,-15.71,-16.03,0,*7D
1535825155.18,63091,21.56,74692.5,4.99,-15.67,-15.95,0,*79
1535825156.4,63092,21.56,74692.3,4.97,-15.71,-15.99,0,*7F
1535825157.62,63093,21.56,74692.5,4.97,-15.71,-15.99,0,*7E
1535825158.87,63094,21.56,74692.8,4.97,-15.85,-16.03,0,*72
1535825160.12,63095,21.56,74692.3,4.99,-15.81,-16.13,0,*78
1535825161.4,63096,21.56,74696.0,4.97,-15.85,-16.17,0,*75
1535825162.65,63097,21.56,74696.8,4.97,-15.81,-16.03,0,*75
1535825163.86,63098,21.56,74692.8,4.99,-15.75,-15.99,0,*7F
1535825165.1,63099,21.5,74692.8,4.97,-15.39,-15.67,0,*79
1535825166.3,63100,21.56,74694.3,4.99,-15.49,-15.67,0,*71
1535825167.53,63101,21.56,74694.8,5.01,-15.29,-15.49,0,*7A
1535825168.76,63102,21.56,74694.5,5.01,-15.49,-15.71,0,*74
1535825169.98,63103,21.56,74690.3,5.01,-15.49,-15.71,0,*75
1535825171.24,63104,21.56,74690.5,5.01,-15.63,-15.81,0,*75
1535825172.49,63105,21.56,74690.0,5.01,-15.57,-15.75,0,*78
1535825173.74,63106,21.56,74690.3,5.01,-15.43,-15.75,0,*7E
1535825174.99,63107,21.56,74688.0,5.03,-15.35,-15.57,0,*7C
1535825176.26,63108,21.5,74690.3,5.01,-15.21,-15.57,0,*74
1535825177.53,63109,21.56,74690.0,5.01,-15.35,-15.57,0,*70
1535825178.78,63110,21.56,74690.5,5.01,-15.21,-15.49,0,*72
1535825180.06,63111,21.5,74686.8,5.01,-15.35,-15.57,0,*79
1535825181.29,63112,21.56,74694.0,5.03,-15.43,-15.71,0,*7D
1535825182.54,63113,21.56,74690.5,5.01,-15.21,-15.49,0,*71
1535825183.76,63114,21.56,74690.8,5.03,-15.07,-15.43,0,*7A
1535825184.97,63115,21.5,74688.0,5.03,-14.89,-15.15,0,*7F
1535825186.21,63116,21.56,74688.0,5.03,-14.75,-15.01,0,*7A
1535825187.41,63117,21.56,74688.5,5.07,-14.65,-14.89,0,*7F
1535825188.64,63118,21.5,74688.5,5.07,-14.83,-15.11,0,*78
1535825189.89,63119,21.56,74690.8,5.09,-14.97,-15.25,0,*75
1535825191.12,63120,21.5,74690.8,5.09,-14.89,-15.15,0,*73
1535825192.37,63121,21.5,74692.0,5.09,-15.25,-15.43,0,*76
1535825193.59,63122,21.56,74688.5,5.09,-14.89,-15.15,0,*71
1535825194.82,63123,21.5,74692.0,5.07,-14.97,-15.25,0,*72
1535825196.07,63124,21.56,74690.5,5.09,-14.97,-15.25,0,*7B
1535825197.3,63125,21.5,74692.3,5.09,-14.89,-15.25,0,*75
1535825198.53,63126,21.56,74698.5,5.11,-14.83,-15.11,0,*72
1535825199.78,63127,21.56,74692.3,5.11,-14.83,-15.21,0,*70
1535825201.03,63128,21.56,74692.8,5.11,-14.83,-15.21,0,*7F
1535825202.26,63129,21.56,74692.5,5.11,-14.83,-15.11,0,*7D
1535825203.51,63130,21.56,74692.0,5.11,-14.79,-15.21,0,*73
1535825204.7,63131,21.56,74694.3,5.11,-14.69,-15.07,0,*77
1535825205.94,63132,21.56,74694.3,5.13,-14.89,-15.21,0,*7C
1535825207.19,63133,21.5,74690.8,5.13,-15.07,-15.35,0,*7F
1535825208.43,63134,21.5,74692.0,5.13,-14.93,-15.15,0,*76
1535825209.66,63135,21.56,74694.8,5.11,-15.07,-15.39,0,*77
1535825210.9,63136,21.56,74692.5,5.13,-15.01,-15.29,0,*71
1535825212.14,63137,21.5,74690.5,5.13,-14.65,-14.93,0,*73
1535825213.39,63138,21.56,74692.3,5.13,-14.93,-15.29,0,*75
1535825214.66,63139,21.56,74694.3,5.13,-15.01,-15.35,0,*73
1535825215.9,63140,21.56,74698.5,5.13,-14.93,-15.29,0,*7A
1535825217.15,63141,21.56,74692.8,5.13,-15.07,-15.43,0,*7B
1535825218.39,63142,21.5,74690.8,5.13,-14.65,-15.01,0,*7B
1535825219.62,63143,21.5,74690.0,5.15,-14.89,-15.21,0,*7C
1535825220.84,63144,21.5,74688.3,5.15,-15.01,-15.29,0,*72
1535825222.07,63145,21.56,74692.5,5.15,-15.01,-15.29,0,*73
1535825223.29,63146,21.5,74690.8,5.15,-14.89,-15.21,0,*79
1535825224.56,63147,21.5,74688.8,5.13,-14.93,-15.21,0,*75
1535825225.78,63148,21.5,74692.0,5.15,-14.93,-15.15,0,*7B
1535825227.0,63149,21.5,74692.0,5.15,-15.07,-15.35,0,*74
1535825228.26,63150,21.5,74692.3,5.13,-15.01,-15.35,0,*7C
1535825229.49,63151,21.5,74692.0,5.15,-14.89,-15.21,0,*7F
1535825230.73,63152,21.5,74688.3,5.15,-15.01,-15.43,0,*79
1535825231.93,63153,21.5,74692.0,5.15,-14.89,-15.15,0,*7A
1535825233.18,63154,21.56,74690.3,5.15,-14.93,-15.21,0,*71
1535825234.4,63155,21.56,74694.5,5.15,-15.01,-15.49,0,*74
1535825235.63,63156,21.56,74694.3,5.15,-14.97,-15.25,0,*73
1535825236.85,63157,21.56,74694.5,5.15,-14.93,-15.15,0,*75
1535825238.1,63158,21.56,74694.5,5.15,-14.43,-14.79,0,*7C
1535825239.33,63159,21.5,74688.0,5.15,-14.65,-14.93,0,*7D
1535825240.55,63160,21.5,74694.5,5.15,-14.65,-15.01,0,*7D
1535825241.8,63161,21.5,74694.5,5.17,-14.83,-15.11,0,*77
1535825243.0,63162,21.56,74692.8,5.15,-14.89,-15.15,0,*78
1535825244.28,63163,21.5,74694.5,5.17,-14.55,-14.97,0,*71
1535825245.53,63164,21.5,74694.8,5.15,-14.75,-15.01,0,*78
1535825246.75,63165,21.56,74694.5,5.15,-14.75,-15.07,0,*7F
1535825248.03,63166,21.5,74692.0,5.17,-14.51,-14.83,0,*75
1535825249.31,63167,21.56,74694.0,5.17,-14.55,-14.97,0,*75
1535825250.54,63168,21.5,74692.8,5.17,-14.61,-14.89,0,*72
1535825251.76,63169,21.5,74694.5,5.17,-14.29,-14.61,0,*79
1535825253.04,63170,21.56,74696.8,5.17,-14.51,-14.83,0,*72
1535825254.31,63171,21.56,74696.0,5.17,-14.75,-15.01,0,*7E
1535825255.53,63172,21.5,74690.3,5.17,-14.69,-15.11,0,*71
1535825256.78,63173,21.56,74692.3,5.17,-14.55,-14.89,0,*7F
1535825258.01,63174,21.5,74690.3,5.19,-14.43,-14.89,0,*71
1535825259.26,63175,21.56,74692.8,5.19,-14.43,-14.83,0,*7A
1535825260.52,63176,21.5,74690.8,5.19,-14.51,-14.83,0,*7A
1535825261.76,63177,21.56,74694.3,5.19,-14.23,-14.51,0,*71
1535825263.0,63178,21.56,74692.8,5.21,-14.33,-14.51,0,*74
1535825264.28,63179,21.56,74692.3,5.21,-14.55,-14.97,0,*7F
1535825265.5,63180,21.5,74690.0,5.19,-14.61,-14.97,0,*75
1535825266.78,63181,21.56,74694.8,5.21,-14.51,-14.93,0,*78
1535825268.0,63182,21.5,74688.3,5.21,-14.33,-14.69,0,*7A
1535825269.28,63183,21.56,74694.5,5.21,-14.47,-14.83,0,*7C
1535825270.47,63184,21.5,74694.0,5.19,-14.69,-15.11,0,*76
1535825271.73,63185,21.5,74692.0,5.19,-14.55,-14.97,0,*77
1535825272.98,63186,21.5,74694.5,5.23,-14.47,-14.93,0,*7A
1535825274.24,63187,21.5,74692.8,5.19,-14.55,-14.97,0,*75
1535825275.48,63188,21.5,74694.5,5.21,-14.65,-14.93,0,*76
1535825276.71,63189,21.5,74694.5,5.19,-14.55,-14.89,0,*74
1535825277.99,63190,21.5,74690.8,5.21,-14.47,-14.83,0,*7E
1535825279.27,63191,21.56,74692.0,5.21,-14.51,-14.93,0,*79
1535825280.54,63192,21.56,74692.5,5.21,-14.51,-14.93,0,*7A
1535825281.82,63193,21.56,74692.5,5.21,-14.51,-14.93,0,*7B
1535825283.05,63194,21.56,74694.8,5.19,-14.55,-14.89,0,*78
1535825284.3,63195,21.56,74694.0,5.19,-14.43,-14.75,0,*7D
1535825285.55,63196,21.5,74690.8,5.21,-14.05,-14.33,0,*75
1535825286.78,63197,21.5,74690.8,5.21,-14.19,-14.37,0,*7D
1535825287.99,63198,21.5,74694.0,5.21,-14.33,-14.69,0,*71
1535825289.19,63199,21.5,74690.8,5.19,-14.37,-14.69,0,*7F
1535825290.47,63200,21.5,74688.3,5.21,-14.51,-14.93,0,*72
1535825291.72,63201,21.5,74692.8,5.21,-14.55,-15.07,0,*7B
1535825293.0,63202,21.5,74692.0,5.21,-14.47,-14.93,0,*77
1535825294.22,63203,21.5,74694.8,5.23,-14.37,-14.83,0,*72
1535825295.47,63204,21.5,74694.8,5.21,-14.37,-14.79,0,*72
1535825296.7,63205,21.56,74694.8,5.23,-14.23,-14.51,0,*7E
1535825297.93,63206,21.56,74696.8,5.23,-14.23,-14.55,0,*79
1535825299.19,63207,21.56,74692.0,5.23,-14.47,-14.79,0,*74
1535825300.38,63208,21.56,74692.8,5.23,-14.33,-14.69,0,*79
1535825301.61,63209,21.56,74694.5,5.23,-13.97,-14.37,0,*7A
1535825302.84,63210,21.5,74688.3,5.23,-13.83,-14.23,0,*72
1535825304.07,63211,21.56,74692.3,5.23,-14.05,-14.23,0,*7A
1535825305.28,63212,21.5,74694.8,5.23,-13.79,-14.11,0,*74
1535825306.5,63213,21.5,74694.8,5.25,-13.79,-14.11,0,*73